[[{"header":{"parameterUnit":"m.s-1","parameterCategory":1,"la1":30.2991,"la2":30.254,"lo1":-89.0895,"lo2":-89.0444,"dy":0.0017,"dx":0.0017,"nx":28,"ny":28,"refTime":"2024-03-12T21:00:00:Z","depth":0,"parameterNumber":2,"parameterNumberName":"U-component_of_WINDS"},"data":[0,0,0,0,0,0,0,0,0,0,0,0,0,0,0,0,0,0,0,0,0,0,0,0,0,0,0,0,0,0,0,0,0,0,0,0,0,0,0,0,0,0,0,0,0,0,0,0,0,0,0,0,0,0,0,0,0,0,-3.9807,-3.9808,0,-3.9959,-3.996,-3.9962,-3.9959,-3.9957,-3.9954,-3.9953,-4.011,-4.0116,-4.0122,0,0,0,0,0,0,0,0,0,0,0,0,0,-3.9517,-3.9522,-3.9807,-3.9809,-3.981,-3.9958,-3.9961,-3.9963,-3.9959,-3.9956,-3.9954,-3.9952,-4.0108,-4.0115,-4.0122,0,0,0,0,0,0,0,0,0,0,0,0,0,-3.9653,-3.9524,-3.9806,-3.9826,-3.983,-3.9958,-3.9961,-3.9963,-3.9959,-3.9956,-3.9953,-3.995,-4.0105,-4.0114,-4.0123,-4.0242,0,0,-4.0151,-4.0155,0,0,0,0,0,0,0,0,-3.9646,-3.9664,-3.9822,-3.9825,-3.9829,-3.9936,-3.9916,-4.0057,-3.996,-3.991,-3.9952,-3.9949,-4.0055,-4.0068,-4.0103,-4.0249,-4.0256,-4.0152,-4.0158,-4.0161,-4.0164,0,0,0,0,0,0,0,-3.9636,-3.9657,-3.9867,-3.9824,-3.9829,-3.9829,-3.9845,-3.9943,-3.9998,-3.9914,-3.9914,-3.9932,-4.0056,-4.0094,-4.0107,-4.0258,-4.0152,-4.016,-4.0166,-4.0169,-4.0512,-4.0516,0,0,0,0,0,0,-3.9622,-3.965,-3.9862,-3.9871,-3.9728,-3.9837,-3.9855,-3.9905,-3.9997,-4.0008,-3.9935,-3.9932,-4.008,-4.0096,-4.0112,-4.0258,-4.0161,-4.017,-4.0175,-4.0509,-4.0513,-4.0517,0,0,0,0,0,0,-3.9616,-3.9641,-3.9856,-3.9761,-3.9788,-3.9845,-3.9902,-3.991,-3.9948,-4.0012,-4.0023,-3.9963,-4.0078,-4.0099,-4.021,-4.0263,-4.0174,-4.0182,-4.0505,-4.051,-4.0515,-4.055,0,0,0,0,0,0,-3.9608,-3.9639,-3.9683,-3.9762,-3.9793,-3.995,-3.9905,-3.9915,-3.9963,-3.9961,-4.0042,-4.0052,-4.0078,-4.0196,-4.0219,-4.0274,-4.019,-4.05,-4.0507,-4.0513,-4.0544,-4.0556,-4.0566,0,0,0,0,0,-3.9597,-3.9687,-3.9685,-3.9711,-3.985,-3.9953,-3.9971,-3.9997,-3.9968,-4.0014,-4.0056,-4.005,-4.0255,-4.0208,-4.0233,-4.0292,-4.0497,-4.0505,-4.0513,-4.0539,-4.0553,-4.0565,0,0,0,0,0,0,-3.9612,-3.9697,-3.9697,-3.9814,-3.9876,-3.9952,-4.001,-4.0011,-4.0084,-4.0078,-4.0109,-4.0127,-4.0238,-4.0277,-4.0223,-4.0413,-4.0372,-4.0386,-4.0383,-4.0397,-4.0408,-4.0395,-4.0197,0,0,0,0,0,-3.9629,-3.9705,-3.9776,-3.9873,-3.9904,-3.9952,-3.9998,-4.0014,-4.0079,-4.0106,-4.0156,-4.0221,-4.03,-4.0351,-4.0428,-4.0551,-4.0569,-4.0605,-4.0615,-4.0624,-4.0634,-4.0704,-4.0721,-4.0544,-4.0544,-4.0544,0,0,-3.9665,-3.9721,-3.9766,-3.9877,-3.9927,-4.0006,-3.9974,-4.0058,-4.0118,-4.0119,-4.0226,-4.0266,-4.0341,-4.0459,-4.0513,-4.0494,-4.0688,-4.0634,-4.0641,-4.0647,-4.0714,-4.0731,-4.0746,-4.0549,-4.0548,-4.0548,0,0,-3.9769,-3.982,-3.9906,-3.9958,-4.0035,-4.0067,-4.0088,-4.0165,-4.0191,-4.03,-4.0303,-4.0375,-4.051,-4.0564,-4.0609,-4.074,-4.0737,-4.0764,-4.0819,-4.0887,-4.0901,-4.0914,-4.096,-4.0976,-4.0775,-4.0775,-4.0775,0,-3.9804,-3.9922,-3.995,-4.0036,-4.0085,-4.0092,-4.018,-4.0229,-4.0327,-4.0362,-4.034,-4.0512,-4.0563,-4.0694,-4.0726,-4.0763,-4.0788,-4.0753,-4.0897,-4.091,-4.0922,-4.0966,-4.0984,-4.0778,-4.0778,-4.0777,-4.0777,0,-3.996,-4.0043,-4.0104,-4.0199,-4.0256,-4.0342,-4.0385,-4.044,-4.0452,-4.0487,-4.06,-4.0662,-4.0751,-4.0785,-4.0797,-4.0919,-4.0905,-4.089,-4.0848,-4.0941,-4.0983,-4.1001,-4.0782,-4.0781,-4.078,-4.0779,0,0,-4.0074,-4.0187,-4.0208,-4.0253,-4.034,-4.0405,-4.0494,-4.0582,-4.0628,-4.0698,-4.0773,-4.089,-4.0877,-4.0929,-4.0948,-4.1008,-4.1108,-4.0986,-4.0988,-4.1005,-4.1247,-4.1257,-4.1276,-4.1109,-4.1112,-4.1115,-4.1241,0,-4.0187,-4.0343,-4.0373,-4.0509,-4.0587,-4.0596,-4.0674,-4.0737,-4.0774,-4.0846,-4.0888,-4.0969,-4.0947,-4.0978,-4.1038,-4.1083,-4.1157,-4.1075,-4.118,-4.1183,-4.1158,-4.1298,-4.1307,-4.1423,-4.1258,-4.1261,-4.1263,0,-4.0338,-4.0411,-4.0555,-4.0635,-4.0668,-4.0737,-4.0822,-4.0891,-4.0964,-4.0987,-4.1047,-4.1061,-4.1155,-4.1112,-4.1244,-4.1188,-4.1233,-4.1263,-4.1268,-4.1277,-4.1226,-4.1309,-4.146,-4.1477,-4.1289,-4.1287,-4.1285,0,-4.0405,-4.054,-4.0644,-4.0682,-4.0778,-4.0826,-4.0869,-4.0939,-4.0991,-4.1067,-4.1101,-4.1187,-4.1233,-4.13,-4.1338,-4.1303,-4.1467,-4.1427,-4.1489,-4.1488,-4.152,-4.1517,-4.1679,-4.1553,-4.1553,-4.1553,-4.1552,0,-4.0526,-4.0613,-4.0676,-4.0739,-4.0838,-4.0875,-4.0973,-4.1015,-4.1078,-4.1152,-4.1167,-4.1236,-4.1282,-4.1358,-4.1389,-4.1494,-4.1515,-4.1537,-4.1544,-4.1534,-4.1531,-4.1562,-4.1554,-4.1557,-4.1556,-4.1555,-4.1555,0,-4.0616,-4.0661,-4.0775,-4.0858,-4.0881,-4.095,-4.1022,-4.1085,-4.1124,-4.1217,-4.1241,-4.1302,-4.1393,-4.1438,-4.1551,-4.1572,-4.1691,-4.1693,-4.1665,-4.1667,-4.1726,-4.172,-4.1912,-4.1939,-4.1797,-4.1799,-4.18,0,-4.0688,-4.0756,-4.0847,-4.0897,-4.0941,-4.1022,-4.1076,-4.1116,-4.1172,-4.1263,-4.1316,-4.1408,-4.1482,-4.1628,-4.1683,-4.1771,-4.1774,-4.1836,-4.1787,-4.1777,-4.1774,-4.1769,-4.1776,-4.1844,-4.1845,-4.1846,-4.1847,0,-4.0812,-4.0833,-4.0909,-4.0995,-4.1059,-4.1129,-4.1197,-4.1238,-4.129,-4.1353,-4.1446,-4.1504,-4.1621,-4.1713,-4.1805,-4.1851,-4.1858,-4.1863,-4.1882,-4.1871,-4.1851,-4.1862,-4.1687,-4.1857,-4.1856,-4.1855,-4.1855,-4.1854,-4.0895,-4.0956,-4.103,-4.1116,-4.1173,-4.1238,-4.1302,-4.135,-4.1428,-4.1525,-4.1546,-4.1645,-4.1721,-4.1846,-4.1895,-4.1974,-4.1961,-4.1988,-4.1995,-4.2,-4.2002,-4.1842,-4.1992,-4.1991,-4.1991,-4.1991,-4.1991,0,-4.1018,-4.1068,-4.1147,-4.1243,-4.1312,-4.1314,-4.1392,-4.1449,-4.1536,-4.1606,-4.168,-4.1789,-4.1879,-4.1943,-4.2035,-4.2087,-4.2093,-4.2109,-4.2105,-4.2115,-4.201,-4.1983,-4.2103,-4.2103,-4.2103,-4.2103,-4.2103,-4.2103,-4.109,-4.1194,-4.1224,-4.1358,-4.1407,-4.1504,-4.1548,-4.1609,-4.1665,-4.1786,-4.186,-4.1902,-4.1971,-4.2069,-4.2153,-4.217,-4.2202,-4.2219,-4.2235,-4.2135,-4.2122,-4.2111,-4.2086,-4.2226,-4.2226,-4.2334,-4.2335,-4.2336]},{"header":{"parameterUnit":"m.s-1","parameterCategory":1,"la1":30.2991,"la2":30.254,"lo1":-89.0895,"lo2":-89.0444,"dy":0.0017,"dx":0.0017,"nx":28,"ny":28,"refTime":"2024-03-12T21:00:00:Z","depth":0,"parameterNumber":3,"parameterNumberName":"V-component_of_WINDS"},"data":[0,0,0,0,0,0,0,0,0,0,0,0,0,0,0,0,0,0,0,0,0,0,0,0,0,0,0,0,0,0,0,0,0,0,0,0,0,0,0,0,0,0,0,0,0,0,0,0,0,0,0,0,0,0,0,0,0,0,2.5535,2.5534,0,2.5494,2.5493,2.5493,2.551,2.5511,2.5512,2.5513,2.5463,2.5461,2.5458,0,0,0,0,0,0,0,0,0,0,0,0,0,2.5624,2.5622,2.5535,2.5534,2.5534,2.5494,2.5493,2.5492,2.551,2.5511,2.5512,2.5513,2.5464,2.5461,2.5458,0,0,0,0,0,0,0,0,0,0,0,0,0,2.5584,2.5622,2.5535,2.5538,2.5538,2.5494,2.5493,2.5492,2.5509,2.5511,2.5512,2.5514,2.5464,2.5461,2.5458,2.5406,0,0,2.5447,2.5446,0,0,0,0,0,0,0,0,2.5586,2.5581,2.5538,2.5537,2.5537,2.5509,2.5506,2.5463,2.5509,2.552,2.5513,2.5515,2.5476,2.5472,2.5461,2.5404,2.5402,2.5447,2.5445,2.5444,2.5443,0,0,0,0,0,0,0,2.5589,2.5583,2.5518,2.5537,2.5537,2.554,2.5536,2.5498,2.549,2.5519,2.552,2.5515,2.5476,2.5464,2.546,2.5401,2.5447,2.5444,2.5442,2.5441,2.5304,2.5302,0,0,0,0,0,0,2.5593,2.5585,2.5519,2.5517,2.5566,2.5537,2.5532,2.5516,2.549,2.5488,2.5514,2.5516,2.5469,2.5464,2.5458,2.5398,2.5444,2.544,2.5438,2.5305,2.5303,2.5302,0,0,0,0,0,0,2.5595,2.5587,2.5521,2.5551,2.5543,2.5534,2.5515,2.5514,2.5502,2.5487,2.5485,2.5503,2.547,2.5463,2.542,2.5396,2.5439,2.5436,2.5307,2.5305,2.5303,2.5276,0,0,0,0,0,0,2.5597,2.5587,2.5568,2.5551,2.5542,2.5485,2.5514,2.5512,2.5497,2.55,2.5476,2.5473,2.5471,2.5425,2.5417,2.5392,2.5433,2.5309,2.5306,2.5303,2.5279,2.5273,2.5268,0,0,0,0,0,2.56,2.556,2.5567,2.5559,2.5518,2.5484,2.5478,2.5478,2.5495,2.5475,2.5467,2.5474,2.5401,2.5421,2.5412,2.5385,2.5311,2.5307,2.5304,2.5281,2.5274,2.5268,0,0,0,0,0,0,2.557,2.5557,2.5565,2.5518,2.5503,2.5487,2.5461,2.547,2.5446,2.5449,2.5448,2.5443,2.5399,2.5388,2.5411,2.5336,2.5358,2.5353,2.5344,2.5337,2.5332,2.5335,2.543,0,0,0,0,0,2.5559,2.5534,2.5524,2.5483,2.5476,2.547,2.5455,2.5457,2.5439,2.5432,2.5419,2.54,2.5374,2.5355,2.5329,2.5279,2.5274,2.5256,2.5251,2.5246,2.5241,2.5215,2.5208,2.529,2.529,2.529,0,0,2.5534,2.5524,2.5507,2.5477,2.5465,2.5439,2.5464,2.5434,2.5414,2.5426,2.5387,2.5378,2.5356,2.531,2.5289,2.53,2.5218,2.5242,2.5238,2.5235,2.5211,2.5203,2.5196,2.5287,2.5288,2.5288,0,0,2.5474,2.5464,2.5431,2.542,2.5403,2.5401,2.5393,2.5377,2.5373,2.5334,2.5344,2.532,2.5272,2.5258,2.5244,2.5186,2.5192,2.5177,2.5147,2.5123,2.5116,2.511,2.509,2.5083,2.5172,2.5172,2.5172,0,2.5444,2.5406,2.5412,2.5383,2.537,2.5385,2.5351,2.5339,2.5313,2.5303,2.5316,2.5261,2.5247,2.5199,2.5186,2.5174,2.5165,2.5178,2.5117,2.5111,2.5106,2.5087,2.5079,2.517,2.5171,2.5171,2.5171,0,2.5371,2.5345,2.5319,2.5299,2.5283,2.5251,2.5252,2.5235,2.524,2.5236,2.5198,2.5183,2.5156,2.5145,2.5147,2.5098,2.5106,2.5118,2.514,2.5096,2.5078,2.5071,2.5168,2.5169,2.5169,2.517,0,0,2.5286,2.5274,2.5264,2.5257,2.5242,2.5221,2.5191,2.5168,2.5154,2.5137,2.5112,2.5075,2.5088,2.5072,2.5074,2.5052,2.5009,2.5068,2.5067,2.5057,2.4955,2.4945,2.4936,2.5015,2.5013,2.5012,2.4957,0,2.5226,2.5176,2.5182,2.5133,2.511,2.5127,2.5101,2.5089,2.5086,2.5065,2.5061,2.5035,2.5054,2.5045,2.5025,2.5018,2.4988,2.5023,2.499,2.4988,2.4993,2.4927,2.4915,2.4863,2.495,2.4949,2.4948,0,2.5147,2.5132,2.5082,2.5075,2.5065,2.5042,2.5024,2.5004,2.4991,2.499,2.4977,2.4983,2.4953,2.4978,2.4937,2.496,2.4948,2.4943,2.4941,2.4936,2.4964,2.4919,2.4847,2.4839,2.4936,2.4937,2.4938,0,2.5091,2.5058,2.5025,2.5018,2.5008,2.4992,2.4987,2.4976,2.4963,2.4946,2.4938,2.4917,2.4905,2.4889,2.489,2.4908,2.4849,2.4873,2.4846,2.4846,2.4831,2.4831,2.4754,2.4825,2.4825,2.4825,2.4825,0,2.5022,2.4991,2.5,2.4979,2.4946,2.4955,2.492,2.4917,2.4908,2.4887,2.49,2.4879,2.4883,2.4862,2.4863,2.4829,2.4823,2.4822,2.4822,2.482,2.482,2.481,2.4813,2.4823,2.4823,2.4824,2.4824,0,2.4952,2.4957,2.4922,2.4919,2.4917,2.4892,2.4888,2.4868,2.4869,2.4842,2.4836,2.4836,2.4813,2.4814,2.4786,2.4787,2.4746,2.475,2.475,2.4751,2.4724,2.4727,2.4637,2.4626,2.4704,2.4704,2.4703,0,2.4907,2.4884,2.4879,2.4868,2.4863,2.4843,2.4831,2.484,2.4827,2.4814,2.4796,2.4776,2.4759,2.4721,2.4717,2.4697,2.4701,2.4671,2.4698,2.4698,2.4701,2.4702,2.47,2.4665,2.4664,2.4663,2.4663,0,2.4826,2.4831,2.4815,2.4802,2.4789,2.4777,2.4767,2.4756,2.4764,2.4749,2.4728,2.4716,2.4691,2.467,2.4652,2.4645,2.4655,2.4656,2.4648,2.4645,2.4646,2.4646,2.4735,2.4657,2.4657,2.4658,2.4658,2.4658,2.4767,2.4749,2.4744,2.4727,2.4721,2.4713,2.4695,2.4696,2.4679,2.4661,2.4668,2.4644,2.4635,2.4612,2.4605,2.4586,2.4596,2.4585,2.4582,2.4579,2.4577,2.4651,2.4582,2.4582,2.4582,2.4583,2.4583,0,2.4687,2.4686,2.4671,2.4659,2.4646,2.4661,2.4652,2.4639,2.4619,2.4611,2.4597,2.4573,2.4554,2.4552,2.4534,2.4519,2.4523,2.4514,2.4514,2.4513,2.4568,2.4576,2.4511,2.4511,2.4511,2.4511,2.4511,2.4511,2.4644,2.4615,2.462,2.4589,2.4588,2.4567,2.4561,2.4553,2.4547,2.4522,2.4508,2.4508,2.4502,2.4485,2.4468,2.4468,2.4461,2.4449,2.4451,2.4501,2.4509,2.4515,2.4523,2.4448,2.4448,2.4397,2.4397,2.4396]}]]